| time (UTC) | temp C | wind direction | speed KPH | gust KPH | rain 1hr cm | rain 24hr cm | rain mn cm | humidity % | barometer mb |
| 20260508132542 | 12 | 106 | 8.0 | 14.5 | 0.00 | 0.18 | 0.08 | 40 | 1022.9 |
| 20260508132042 | 12 | 111 | 4.8 | 14.5 | 0.00 | 0.18 | 0.08 | 42 | 1022.8 |
| 20260508131545 | 12 | 0 | 3.2 | 14.5 | 0.00 | 0.18 | 0.08 | 43 | 1022.9 |
| 20260508131042 | 12 | 102 | 4.8 | 17.7 | 0.00 | 0.18 | 0.08 | 42 | 1022.9 |
| 20260508130541 | 12 | 130 | 6.4 | 17.7 | 0.00 | 0.18 | 0.08 | 39 | 1022.9 |
| 20260508130050 | 12 | 119 | 8.0 | 17.7 | 0.00 | 0.18 | 0.08 | 39 | 1023.0 |
| 20260508125542 | 12 | 107 | 6.4 | 19.3 | 0.00 | 0.18 | 0.08 | 41 | 1022.9 |
| 20260508125043 | 12 | 97 | 6.4 | 19.3 | 0.00 | 0.18 | 0.08 | 40 | 1023.0 |
| 20260508124548 | 13 | 111 | 4.8 | 17.7 | 0.00 | 0.18 | 0.08 | 37 | 1022.9 |
| 20260508124042 | 13 | 126 | 8.0 | 17.7 | 0.00 | 0.18 | 0.08 | 38 | 1023.0 |
| 20260508123545 | 13 | 97 | 6.4 | 12.9 | 0.00 | 0.18 | 0.08 | 39 | 1023.0 |
| 20260508123052 | 13 | 105 | 1.6 | 11.3 | 0.00 | 0.18 | 0.08 | 47 | 1022.9 |
| 20260508122542 | 13 | 0 | 1.6 | 12.9 | 0.00 | 0.18 | 0.08 | 47 | 1022.9 |
| 20260508122043 | 13 | 20 | 0.0 | 14.5 | 0.00 | 0.18 | 0.08 | 48 | 1022.9 |
| 20260508121550 | 13 | 98 | 4.8 | 14.5 | 0.00 | 0.18 | 0.08 | 49 | 1022.8 |
| 20260508121041 | 13 | 317 | 4.8 | 22.5 | 0.00 | 0.18 | 0.08 | 53 | 1022.8 |
| 20260508120541 | 13 | 49 | 9.7 | 22.5 | 0.00 | 0.18 | 0.08 | 51 | 1022.9 |
| 20260508120053 | 13 | 310 | 3.2 | 9.7 | 0.00 | 0.18 | 0.08 | 48 | 1022.9 |
| 20260508115542 | 13 | 0 | 1.6 | 12.9 | 0.00 | 0.18 | 0.08 | 49 | 1023.0 |
| 20260508115041 | 13 | 279 | 3.2 | 12.9 | 0.00 | 0.18 | 0.08 | 50 | 1022.8 |
| 20260508114603 | 13 | 109 | 3.2 | 9.7 | 0.00 | 0.18 | 0.08 | 47 | 1022.9 |
| 20260508114042 | 13 | 338 | 0.0 | 6.4 | 0.00 | 0.18 | 0.08 | 54 | 1022.9 |
| 20260508113542 | 13 | 0 | 1.6 | 11.3 | 0.00 | 0.18 | 0.08 | 51 | 1022.9 |
| 20260508113121 | 12 | 199 | 3.2 | 11.3 | 0.00 | 0.18 | 0.08 | 48 | 1022.8 |
| 20260508112545 | 12 | 88 | 1.6 | 9.7 | 0.00 | 0.18 | 0.08 | 52 | 1022.8 |
| 20260508112041 | 12 | 51 | 1.6 | 9.7 | 0.00 | 0.18 | 0.08 | 50 | 1022.7 |
| 20260508111550 | 12 | 140 | 1.6 | 8.0 | 0.00 | 0.18 | 0.08 | 48 | 1022.8 |
| 20260508111043 | 11 | 124 | 0.0 | 14.5 | 0.00 | 0.18 | 0.08 | 53 | 1022.8 |
| 20260508110542 | 11 | 144 | 3.2 | 14.5 | 0.00 | 0.18 | 0.08 | 48 | 1022.8 |
| 20260508110049 | 11 | 97 | 4.8 | 14.5 | 0.00 | 0.18 | 0.08 | 51 | 1022.8 |
| 20260508105542 | 11 | 0 | 3.2 | 14.5 | 0.00 | 0.18 | 0.08 | 58 | 1022.8 |
| 20260508105042 | 11 | 284 | 1.6 | 14.5 | 0.00 | 0.18 | 0.08 | 59 | 1022.9 |
| 20260508104557 | 11 | 284 | 6.4 | 17.7 | 0.00 | 0.18 | 0.08 | 58 | 1022.7 |
| 20260508104042 | 11 | 333 | 8.0 | 17.7 | 0.00 | 0.18 | 0.08 | 59 | 1022.8 |
| 20260508103542 | 11 | 310 | 8.0 | 17.7 | 0.00 | 0.18 | 0.08 | 59 | 1022.9 |
| 20260508103103 | 11 | 311 | 6.4 | 14.5 | 0.00 | 0.18 | 0.08 | 61 | 1023.0 |
| 20260508102541 | 11 | 28 | 3.2 | 16.1 | 0.00 | 0.18 | 0.08 | 63 | 1023.0 |
| 20260508102042 | 11 | 5 | 4.8 | 16.1 | 0.00 | 0.18 | 0.08 | 63 | 1023.0 |
| 20260508101551 | 11 | 317 | 6.4 | 16.1 | 0.00 | 0.18 | 0.08 | 64 | 1023.1 |
| 20260508101042 | 11 | 317 | 6.4 | 14.5 | 0.00 | 0.18 | 0.08 | 65 | 1023.0 |
| 20260508100541 | 10 | 310 | 6.4 | 14.5 | 0.00 | 0.18 | 0.08 | 65 | 1023.1 |
| 20260508100047 | 10 | 0 | 1.6 | 12.9 | 0.00 | 0.18 | 0.08 | 66 | 1023.1 |
| 20260508095543 | 9 | 301 | 4.8 | 12.9 | 0.00 | 0.18 | 0.08 | 66 | 1023.2 |
| 20260508095043 | 9 | 306 | 6.4 | 14.5 | 0.00 | 0.18 | 0.08 | 66 | 1023.2 |
| 20260508094549 | 8 | 339 | 6.4 | 14.5 | 0.00 | 0.18 | 0.08 | 66 | 1023.2 |
| 20260508094042 | 8 | 298 | 0.0 | 6.4 | 0.00 | 0.18 | 0.08 | 63 | 1023.4 |
| 20260508093545 | 8 | 0 | 0.0 | 9.7 | 0.00 | 0.18 | 0.08 | 60 | 1023.3 |
| 20260508093052 | 8 | 135 | 3.2 | 9.7 | 0.00 | 0.18 | 0.08 | 59 | 1023.4 |
| 20260508092542 | 8 | 125 | 4.8 | 9.7 | 0.00 | 0.18 | 0.08 | 61 | 1023.4 |
| 20260508092042 | 7 | 180 | 0.0 | 9.7 | 0.00 | 0.18 | 0.08 | 62 | 1023.4 |
| 20260508091549 | 7 | 181 | 3.2 | 9.7 | 0.00 | 0.18 | 0.08 | 61 | 1023.3 |
| 20260508091042 | 7 | 258 | 3.2 | 8.0 | 0.00 | 0.18 | 0.08 | 63 | 1023.3 |
| 20260508090542 | 7 | 251 | 1.6 | 6.4 | 0.00 | 0.18 | 0.08 | 60 | 1023.2 |
| 20260508090051 | 8 | 151 | 3.2 | 6.4 | 0.00 | 0.18 | 0.08 | 59 | 1023.1 |
| 20260508085543 | 8 | 228 | 3.2 | 11.3 | 0.00 | 0.23 | 0.08 | 61 | 1023.1 |
| 20260508085042 | 8 | 188 | 1.6 | 11.3 | 0.00 | 0.23 | 0.08 | 62 | 1023.2 |
| 20260508084552 | 8 | 165 | 4.8 | 11.3 | 0.00 | 0.23 | 0.08 | 64 | 1023.2 |
| 20260508084042 | 8 | 341 | 3.2 | 11.3 | 0.00 | 0.23 | 0.08 | 68 | 1023.1 |
| 20260508083543 | 8 | 0 | 6.4 | 11.3 | 0.00 | 0.23 | 0.08 | 67 | 1023.1 |
| 20260508083048 | 8 | 102 | 3.2 | 11.3 | 0.00 | 0.23 | 0.08 | 70 | 1023.2 |
| 20260508082542 | 7 | 98 | 3.2 | 11.3 | 0.00 | 0.23 | 0.08 | 72 | 1023.2 |
| 20260508082043 | 7 | 95 | 1.6 | 11.3 | 0.00 | 0.23 | 0.08 | 73 | 1023.1 |
| 20260508081556 | 7 | 91 | 0.0 | 11.3 | 0.00 | 0.23 | 0.08 | 74 | 1023.1 |
| 20260508081042 | 7 | 91 | 3.2 | 11.3 | 0.00 | 0.23 | 0.08 | 74 | 1023.2 |
| 20260508080542 | 7 | 98 | 0.0 | 11.3 | 0.00 | 0.23 | 0.08 | 76 | 1023.1 |
| 20260508080049 | 6 | 106 | 3.2 | 11.3 | 0.00 | 0.23 | 0.08 | 75 | 1023.1 |
| 20260508075542 | 6 | 82 | 1.6 | 11.3 | 0.00 | 0.23 | 0.08 | 77 | 1023.1 |
| 20260508075042 | 6 | 106 | 0.0 | 9.7 | 0.00 | 0.23 | 0.08 | 79 | 1023.1 |
| 20260508074544 | 6 | 103 | 0.0 | 3.2 | 0.00 | 0.23 | 0.08 | 79 | 1023.0 |
| 20260508074042 | 6 | 0 | 0.0 | 9.7 | 0.00 | 0.23 | 0.08 | 81 | 1023.0 |
| 20260508073542 | 5 | 0 | 3.2 | 9.7 | 0.00 | 0.23 | 0.08 | 80 | 1023.0 |
| 20260508073048 | 5 | 98 | 0.0 | 6.4 | 0.00 | 0.23 | 0.08 | 82 | 1023.0 |
| 20260508072542 | 5 | 91 | 0.0 | 6.4 | 0.00 | 0.23 | 0.08 | 82 | 1023.0 |
| 20260508072042 | 5 | 0 | 0.0 | 3.2 | 0.00 | 0.23 | 0.08 | 82 | 1022.9 |
| 20260508071550 | 5 | 0 | 0.0 | 3.2 | 0.00 | 0.23 | 0.08 | 81 | 1022.9 |
| 20260508071041 | 4 | 0 | 0.0 | 3.2 | 0.00 | 0.23 | 0.08 | 81 | 1023.0 |
| 20260508070542 | 4 | 0 | 0.0 | 3.2 | 0.00 | 0.23 | 0.08 | 82 | 1022.8 |
| 20260508070054 | 4 | 69 | 0.0 | 3.2 | 0.00 | 0.23 | 0.08 | 84 | 1022.8 |
| 20260508065542 | 4 | 69 | 0.0 | 1.6 | 0.00 | 0.28 | 0.08 | 84 | 1022.7 |
| 20260508065043 | 4 | 0 | 0.0 | 0.0 | 0.00 | 0.28 | 0.08 | 83 | 1022.7 |
| 20260508064606 | 3 | 0 | 0.0 | 0.0 | 0.00 | 0.28 | 0.08 | 83 | 1022.7 |
| 20260508064042 | 3 | 0 | 0.0 | 0.0 | 0.00 | 0.28 | 0.08 | 84 | 1022.7 |
| 20260508063542 | 3 | 0 | 0.0 | 0.0 | 0.00 | 0.28 | 0.08 | 84 | 1022.7 |
| 20260508063048 | 3 | 0 | 0.0 | 0.0 | 0.00 | 0.28 | 0.08 | 84 | 1022.7 |
| 20260508062541 | 3 | 0 | 0.0 | 0.0 | 0.00 | 0.28 | 0.08 | 84 | 1022.7 |
| 20260508062042 | 3 | 0 | 0.0 | 0.0 | 0.00 | 0.28 | 0.08 | 85 | 1022.7 |
| 20260508061559 | 3 | 0 | 0.0 | 0.0 | 0.00 | 0.28 | 0.08 | 85 | 1022.6 |
| 20260508061043 | 3 | 0 | 0.0 | 0.0 | 0.00 | 0.28 | 0.08 | 85 | 1022.5 |
| 20260508060541 | 3 | 0 | 0.0 | 0.0 | 0.00 | 0.28 | 0.08 | 85 | 1022.5 |
| 20260508060050 | 3 | 0 | 0.0 | 0.0 | 0.00 | 0.28 | 0.08 | 86 | 1022.5 |
| 20260508055545 | 3 | 0 | 0.0 | 0.0 | 0.00 | 0.28 | 0.08 | 86 | 1022.5 |
| 20260508055039 | 3 | 0 | 0.0 | 0.0 | 0.00 | 0.28 | 0.08 | 86 | 1022.5 |
| 20260508054612 | 3 | 0 | 0.0 | 0.0 | 0.00 | 0.28 | 0.08 | 86 | 1022.4 |
| 20260508054041 | 3 | 0 | 0.0 | 0.0 | 0.00 | 0.28 | 0.08 | 87 | 1022.4 |
| 20260508053544 | 2 | 0 | 0.0 | 0.0 | 0.00 | 0.28 | 0.08 | 87 | 1022.4 |
| 20260508053056 | 2 | 0 | 0.0 | 0.0 | 0.00 | 0.28 | 0.08 | 87 | 1022.3 |
| 20260508052544 | 2 | 0 | 0.0 | 0.0 | 0.00 | 0.28 | 0.08 | 87 | 1022.2 |
| 20260508052043 | 2 | 0 | 0.0 | 0.0 | 0.00 | 0.28 | 0.08 | 87 | 1022.2 |
| 20260508051549 | 2 | 0 | 0.0 | 0.0 | 0.00 | 0.28 | 0.08 | 87 | 1022.3 |
| 20260508051042 | 2 | 0 | 0.0 | 0.0 | 0.00 | 0.28 | 0.08 | 88 | 1022.2 |
| 20260508050542 | 2 | 0 | 0.0 | 0.0 | 0.00 | 0.28 | 0.08 | 88 | 1022.2 |
| 20260508050054 | 2 | 0 | 0.0 | 0.0 | 0.00 | 0.28 | 0.08 | 88 | 1022.2 |
| 20260508045541 | 2 | 0 | 0.0 | 0.0 | 0.00 | 0.28 | 0.08 | 87 | 1022.1 |
| 20260508045042 | 2 | 0 | 0.0 | 0.0 | 0.00 | 0.28 | 0.08 | 87 | 1022.0 |
| 20260508044552 | 2 | 0 | 0.0 | 0.0 | 0.00 | 0.28 | 0.08 | 87 | 1022.0 |
| 20260508044043 | 2 | 0 | 0.0 | 0.0 | 0.00 | 0.28 | 0.08 | 86 | 1021.9 |
| 20260508043542 | 2 | 0 | 0.0 | 0.0 | 0.00 | 0.28 | 0.08 | 86 | 1021.9 |
| 20260508043058 | 1 | 0 | 0.0 | 0.0 | 0.00 | 0.28 | 0.08 | 86 | 1021.9 |
| 20260508042546 | 1 | 0 | 0.0 | 0.0 | 0.00 | 0.28 | 0.08 | 86 | 1021.9 |
| 20260508042041 | 1 | 0 | 0.0 | 0.0 | 0.00 | 0.25 | 0.08 | 86 | 1021.8 |
| 20260508041555 | 1 | 0 | 0.0 | 0.0 | 0.00 | 0.25 | 0.08 | 86 | 1021.9 |
| 20260508041045 | 1 | 0 | 0.0 | 0.0 | 0.00 | 0.25 | 0.08 | 86 | 1021.9 |
| 20260508040542 | 1 | 0 | 0.0 | 0.0 | 0.00 | 0.25 | 0.08 | 86 | 1021.8 |
| 20260508035546 | 1 | 0 | 0.0 | 0.0 | 0.00 | 0.25 | 0.08 | 86 | 1021.7 |
| 20260508035042 | 1 | 0 | 0.0 | 0.0 | 0.00 | 0.25 | 0.08 | 86 | 1021.7 |
| 20260508034553 | 1 | 0 | 0.0 | 0.0 | 0.00 | 0.25 | 0.08 | 86 | 1021.7 |
| 20260508034041 | 1 | 0 | 0.0 | 0.0 | 0.00 | 0.25 | 0.08 | 85 | 1021.7 |
| 20260508033541 | 1 | 0 | 0.0 | 0.0 | 0.00 | 0.25 | 0.08 | 85 | 1021.6 |
| 20260508033051 | 1 | 0 | 0.0 | 0.0 | 0.03 | 0.25 | 0.08 | 85 | 1021.6 |
| 20260508032542 | 1 | 0 | 0.0 | 0.0 | 0.05 | 0.25 | 0.08 | 86 | 1021.6 |
| 20260508032042 | 1 | 0 | 0.0 | 0.0 | 0.05 | 0.25 | 0.08 | 86 | 1021.6 |
| 20260508031603 | 1 | 0 | 0.0 | 0.0 | 0.05 | 0.25 | 0.08 | 85 | 1021.6 |
| 20260508031042 | 1 | 0 | 0.0 | 0.0 | 0.05 | 0.25 | 0.08 | 85 | 1021.5 |
| 20260508030541 | 1 | 0 | 0.0 | 0.0 | 0.05 | 0.25 | 0.08 | 85 | 1021.5 |
| 20260508030106 | 1 | 0 | 0.0 | 0.0 | 0.05 | 0.25 | 0.08 | 85 | 1021.4 |
| 20260508025543 | 1 | 0 | 0.0 | 0.0 | 0.05 | 0.25 | 0.08 | 85 | 1021.4 |
| 20260508025042 | 1 | 0 | 0.0 | 0.0 | 0.05 | 0.25 | 0.08 | 85 | 1021.5 |
| 20260508024553 | 1 | 0 | 0.0 | 0.0 | 0.05 | 0.25 | 0.08 | 85 | 1021.4 |
| 20260508024042 | 1 | 0 | 0.0 | 1.6 | 0.05 | 0.25 | 0.08 | 85 | 1021.4 |
| 20260508023542 | 1 | 0 | 0.0 | 4.8 | 0.03 | 0.23 | 0.05 | 85 | 1021.4 |
| 20260508023053 | 1 | 0 | 1.6 | 4.8 | 0.00 | 0.20 | 0.03 | 85 | 1021.4 |
| 20260508022541 | 1 | 327 | 1.6 | 4.8 | 0.00 | 0.18 | 0.00 | 85 | 1021.5 |
| 20260508022043 | 1 | 330 | 3.2 | 4.8 | 0.00 | 0.18 | 0.00 | 85 | 1021.4 |
| 20260508021603 | 1 | 0 | 0.0 | 0.0 | 0.00 | 0.18 | 0.00 | 85 | 1021.4 |
| 20260508021042 | 1 | 0 | 0.0 | 0.0 | 0.00 | 0.18 | 0.00 | 85 | 1021.4 |
| 20260508020542 | 1 | 0 | 0.0 | 0.0 | 0.00 | 0.18 | 0.00 | 85 | 1021.2 |
| 20260508020052 | 1 | 0 | 0.0 | 0.0 | 0.00 | 0.18 | 0.00 | 85 | 1021.3 |
| 20260508015542 | 1 | 0 | 0.0 | 0.0 | 0.00 | 0.18 | 0.00 | 84 | 1021.1 |
| 20260508015042 | 1 | 0 | 0.0 | 0.0 | 0.00 | 0.18 | 0.00 | 84 | 1021.1 |
| 20260508014552 | 1 | 0 | 0.0 | 0.0 | 0.00 | 0.18 | 0.00 | 85 | 1021.0 |
| 20260508014042 | 1 | 0 | 0.0 | 0.0 | 0.00 | 0.18 | 0.00 | 85 | 1021.0 |
| 20260508013541 | 1 | 0 | 0.0 | 0.0 | 0.00 | 0.18 | 0.00 | 85 | 1021.0 |
| 20260508013050 | 1 | 0 | 0.0 | 0.0 | 0.00 | 0.18 | 0.00 | 85 | 1020.8 |
| 20260508012541 | 1 | 0 | 0.0 | 0.0 | 0.00 | 0.18 | 0.00 | 85 | 1020.9 |
| 20260508012044 | 1 | 0 | 0.0 | 0.0 | 0.00 | 0.18 | 0.00 | 85 | 1020.8 |
| 20260508011554 | 1 | 0 | 0.0 | 0.0 | 0.00 | 0.18 | 0.00 | 85 | 1020.8 |
| 20260508011043 | 1 | 0 | 0.0 | 0.0 | 0.00 | 0.18 | 0.00 | 86 | 1020.7 |
| 20260508010541 | 1 | 0 | 0.0 | 0.0 | 0.00 | 0.18 | 0.00 | 85 | 1020.8 |
| 20260508010050 | 1 | 0 | 0.0 | 0.0 | 0.00 | 0.18 | 0.00 | 86 | 1020.7 |
| 20260508005543 | 1 | 0 | 0.0 | 0.0 | 0.00 | 0.18 | 0.00 | 85 | 1020.8 |
| 20260508005045 | 1 | 0 | 0.0 | 0.0 | 0.00 | 0.18 | 0.00 | 85 | 1020.8 |
| 20260508004550 | 1 | 0 | 0.0 | 0.0 | 0.00 | 0.18 | 0.00 | 85 | 1020.7 |
| 20260508004042 | 1 | 0 | 0.0 | 0.0 | 0.00 | 0.18 | 0.00 | 85 | 1020.7 |
| 20260508003541 | 1 | 0 | 0.0 | 0.0 | 0.00 | 0.18 | 0.00 | 85 | 1020.7 |
| 20260508003049 | 1 | 0 | 0.0 | 0.0 | 0.00 | 0.18 | 0.00 | 85 | 1020.5 |
| 20260508002541 | 1 | 0 | 0.0 | 0.0 | 0.00 | 0.18 | 0.00 | 85 | 1020.5 |
| 20260508002045 | 1 | 0 | 0.0 | 0.0 | 0.00 | 0.18 | 0.00 | 85 | 1020.4 |
| 20260508001547 | 1 | 0 | 0.0 | 0.0 | 0.00 | 0.18 | 0.00 | 85 | 1020.5 |
| 20260508001043 | 1 | 0 | 0.0 | 0.0 | 0.00 | 0.18 | 0.00 | 86 | 1020.4 |
| 20260508000542 | 1 | 0 | 0.0 | 0.0 | 0.00 | 0.18 | 0.00 | 86 | 1020.4 |
| 20260508000105 | 1 | 0 | 0.0 | 0.0 | 0.00 | 0.18 | 0.00 | 86 | 1020.4 |
| 20260507235544 | 1 | 0 | 0.0 | 0.0 | 0.00 | 0.20 | 0.00 | 86 | 1020.2 |
| 20260507235042 | 1 | 0 | 0.0 | 0.0 | 0.00 | 0.20 | 0.00 | 86 | 1020.1 |
| 20260507234556 | 1 | 0 | 0.0 | 9.7 | 0.00 | 0.20 | 0.00 | 86 | 1020.1 |
| 20260507234043 | 1 | 0 | 0.0 | 14.5 | 0.00 | 0.20 | 0.00 | 86 | 1020.0 |
| 20260507233541 | 1 | 296 | 8.0 | 14.5 | 0.00 | 0.20 | 0.00 | 86 | 1020.0 |
| 20260507233051 | 1 | 327 | 6.4 | 17.7 | 0.00 | 0.18 | 0.00 | 86 | 1020.0 |
| 20260507232541 | 1 | 253 | 6.4 | 17.7 | 0.00 | 0.18 | 0.00 | 87 | 1020.0 |
| 20260507232134 | 1 | 284 | 9.7 | 22.5 | 0.00 | 0.18 | 0.00 | 87 | 1020.1 |
| 20260507231558 | 1 | 234 | 8.0 | 22.5 | 0.00 | 0.18 | 0.00 | 87 | 1020.0 |
| 20260507231041 | 1 | 246 | 11.3 | 22.5 | 0.00 | 0.18 | 0.00 | 87 | 1020.0 |
| 20260507230545 | 1 | 242 | 6.4 | 19.3 | 0.00 | 0.18 | 0.00 | 87 | 1020.0 |
| 20260507230047 | 1 | 212 | 1.6 | 19.3 | 0.00 | 0.18 | 0.00 | 86 | 1020.1 |
| 20260507225541 | 0 | 244 | 3.2 | 11.3 | 0.00 | 0.23 | 0.00 | 85 | 1020.1 |
| 20260507225042 | 0 | 0 | 0.0 | 0.0 | 0.00 | 0.23 | 0.00 | 82 | 1019.8 |
| 20260507224551 | 0 | 0 | 0.0 | 0.0 | 0.00 | 0.23 | 0.00 | 82 | 1019.7 |
| 20260507224041 | 0 | 0 | 0.0 | 0.0 | 0.00 | 0.23 | 0.00 | 82 | 1019.6 |
| 20260507223544 | 0 | 0 | 0.0 | 0.0 | 0.00 | 0.23 | 0.00 | 82 | 1019.6 |
| 20260507223055 | 0 | 0 | 0.0 | 0.0 | 0.00 | 0.23 | 0.00 | 81 | 1019.5 |
| 20260507222541 | 1 | 0 | 0.0 | 0.0 | 0.00 | 0.23 | 0.00 | 81 | 1019.5 |
| 20260507222041 | 1 | 0 | 0.0 | 0.0 | 0.00 | 0.23 | 0.00 | 81 | 1019.5 |
| 20260507221544 | 1 | 0 | 0.0 | 0.0 | 0.00 | 0.23 | 0.00 | 81 | 1019.5 |
| 20260507221041 | 1 | 0 | 0.0 | 0.0 | 0.00 | 0.23 | 0.00 | 81 | 1019.4 |
| 20260507220541 | 1 | 0 | 0.0 | 0.0 | 0.00 | 0.23 | 0.00 | 81 | 1019.4 |
| 20260507220053 | 1 | 0 | 0.0 | 1.6 | 0.00 | 0.23 | 0.00 | 81 | 1019.3 |
| 20260507215542 | 1 | 0 | 0.0 | 3.2 | 0.00 | 0.28 | 0.23 | 81 | 1019.3 |
| 20260507215042 | 1 | 0 | 0.0 | 3.2 | 0.00 | 0.28 | 0.23 | 82 | 1019.3 |
| 20260507214554 | 1 | 0 | 0.0 | 3.2 | 0.00 | 0.28 | 0.23 | 81 | 1019.2 |
| 20260507214041 | 1 | 0 | 0.0 | 4.8 | 0.00 | 0.28 | 0.23 | 82 | 1019.2 |
| 20260507213542 | 1 | 321 | 0.0 | 4.8 | 0.00 | 0.28 | 0.23 | 82 | 1019.2 |
| 20260507213048 | 1 | 321 | 1.6 | 4.8 | 0.00 | 0.28 | 0.23 | 82 | 1019.1 |
| 20260507212544 | 1 | 320 | 1.6 | 3.2 | 0.00 | 0.28 | 0.23 | 82 | 1019.1 |
| 20260507212041 | 1 | 0 | 0.0 | 4.8 | 0.00 | 0.28 | 0.23 | 82 | 1019.1 |
| 20260507211558 | 1 | 0 | 1.6 | 4.8 | 0.00 | 0.28 | 0.23 | 82 | 1019.1 |
| 20260507211041 | 1 | 0 | 0.0 | 1.6 | 0.00 | 0.28 | 0.23 | 81 | 1019.0 |
| 20260507210541 | 1 | 0 | 0.0 | 1.6 | 0.00 | 0.28 | 0.23 | 81 | 1019.0 |
| 20260507210049 | 2 | 0 | 0.0 | 0.0 | 0.00 | 0.28 | 0.23 | 81 | 1018.9 |
| 20260507205541 | 2 | 0 | 0.0 | 0.0 | 0.00 | 0.30 | 0.23 | 81 | 1018.8 |
| 20260507205042 | 2 | 0 | 0.0 | 0.0 | 0.00 | 0.30 | 0.23 | 81 | 1018.7 |
| 20260507204548 | 2 | 0 | 0.0 | 0.0 | 0.00 | 0.30 | 0.23 | 81 | 1018.7 |
| 20260507204041 | 2 | 0 | 0.0 | 0.0 | 0.00 | 0.30 | 0.23 | 81 | 1018.6 |
| 20260507203541 | 2 | 0 | 0.0 | 1.6 | 0.00 | 0.30 | 0.23 | 81 | 1018.6 |
| 20260507203043 | 2 | 0 | 0.0 | 1.6 | 0.00 | 0.30 | 0.23 | 81 | 1018.5 |
| 20260507202543 | 2 | 0 | 0.0 | 1.6 | 0.00 | 0.30 | 0.23 | 81 | 1018.5 |
| 20260507202041 | 2 | 0 | 0.0 | 4.8 | 0.00 | 0.30 | 0.23 | 81 | 1018.4 |
| 20260507201547 | 2 | 0 | 0.0 | 4.8 | 0.00 | 0.30 | 0.23 | 81 | 1018.3 |
| 20260507201042 | 2 | 349 | 0.0 | 4.8 | 0.00 | 0.30 | 0.23 | 81 | 1018.3 |
| 20260507200541 | 2 | 0 | 0.0 | 0.0 | 0.00 | 0.30 | 0.23 | 81 | 1018.3 |
| 20260507200045 | 2 | 0 | 0.0 | 1.6 | 0.00 | 0.30 | 0.23 | 81 | 1018.3 |
| 20260507195541 | 3 | 0 | 0.0 | 1.6 | 0.00 | 0.36 | 0.23 | 82 | 1018.3 |
| 20260507195041 | 3 | 0 | 0.0 | 0.0 | 0.03 | 0.36 | 0.23 | 82 | 1018.2 |
| 20260507194551 | 3 | 0 | 0.0 | 0.0 | 0.05 | 0.36 | 0.23 | 82 | 1018.1 |
| 20260507194042 | 3 | 0 | 0.0 | 0.0 | 0.08 | 0.36 | 0.23 | 83 | 1018.0 |
| 20260507193541 | 3 | 0 | 0.0 | 0.0 | 0.08 | 0.36 | 0.23 | 83 | 1018.1 |
| 20260507193056 | 3 | 0 | 0.0 | 0.0 | 0.08 | 0.36 | 0.23 | 82 | 1018.0 |
| 20260507192541 | 2 | 0 | 0.0 | 0.0 | 0.08 | 0.36 | 0.23 | 82 | 1017.9 |
| 20260507192042 | 2 | 0 | 0.0 | 3.2 | 0.08 | 0.36 | 0.23 | 82 | 1017.9 |
| 20260507191552 | 2 | 0 | 0.0 | 4.8 | 0.08 | 0.36 | 0.23 | 82 | 1017.8 |
| 20260507191042 | 2 | 0 | 1.6 | 6.4 | 0.08 | 0.36 | 0.23 | 82 | 1017.8 |
| 20260507190542 | 2 | 318 | 1.6 | 8.0 | 0.08 | 0.36 | 0.23 | 81 | 1017.7 |
| 20260507190047 | 2 | 310 | 3.2 | 11.3 | 0.08 | 0.36 | 0.23 | 81 | 1017.8 |
| 20260507185541 | 3 | 223 | 4.8 | 14.5 | 0.08 | 0.38 | 0.23 | 80 | 1017.9 |
| 20260507185041 | 3 | 270 | 4.8 | 17.7 | 0.03 | 0.36 | 0.18 | 80 | 1017.9 |
| 20260507184550 | 3 | 275 | 8.0 | 20.9 | 0.00 | 0.33 | 0.18 | 80 | 1017.9 |
| 20260507184041 | 3 | 267 | 11.3 | 20.9 | 0.00 | 0.30 | 0.15 | 80 | 1017.8 |
| 20260507183541 | 3 | 260 | 6.4 | 17.7 | 0.00 | 0.30 | 0.15 | 79 | 1017.6 |
| 20260507183049 | 4 | 250 | 3.2 | 8.0 | 0.00 | 0.30 | 0.15 | 79 | 1017.4 |
| 20260507182541 | 4 | 0 | 0.0 | 6.4 | 0.00 | 0.30 | 0.15 | 79 | 1017.2 |
| 20260507182041 | 4 | 0 | 0.0 | 6.4 | 0.00 | 0.30 | 0.15 | 79 | 1017.3 |
| 20260507181553 | 4 | 0 | 1.6 | 6.4 | 0.00 | 0.30 | 0.15 | 78 | 1017.2 |
| 20260507181041 | 4 | 249 | 1.6 | 4.8 | 0.00 | 0.30 | 0.15 | 78 | 1017.2 |
| 20260507180546 | 4 | 255 | 0.0 | 4.8 | 0.00 | 0.30 | 0.15 | 79 | 1017.1 |
| 20260507180051 | 4 | 256 | 1.6 | 11.3 | 0.00 | 0.30 | 0.15 | 78 | 1017.1 |
| 20260507175543 | 4 | 249 | 3.2 | 11.3 | 0.00 | 0.36 | 0.15 | 79 | 1017.0 |
| 20260507175043 | 4 | 250 | 3.2 | 12.9 | 0.00 | 0.36 | 0.15 | 79 | 1017.1 |
| 20260507174614 | 4 | 242 | 4.8 | 16.1 | 0.00 | 0.36 | 0.15 | 78 | 1017.2 |
| 20260507174042 | 5 | 242 | 8.0 | 16.1 | 0.00 | 0.36 | 0.15 | 77 | 1017.2 |
| 20260507173543 | 5 | 237 | 6.4 | 12.9 | 0.00 | 0.36 | 0.15 | 76 | 1017.1 |
| 20260507173048 | 5 | 242 | 4.8 | 11.3 | 0.00 | 0.36 | 0.15 | 75 | 1017.0 |
| 20260507172543 | 5 | 221 | 3.2 | 8.0 | 0.00 | 0.36 | 0.15 | 75 | 1017.0 |
| 20260507172044 | 5 | 257 | 3.2 | 11.3 | 0.00 | 0.36 | 0.15 | 75 | 1017.0 |
| 20260507171602 | 5 | 254 | 3.2 | 11.3 | 0.00 | 0.36 | 0.15 | 75 | 1017.0 |
| 20260507171043 | 5 | 287 | 4.8 | 9.7 | 0.00 | 0.36 | 0.15 | 75 | 1017.1 |
| 20260507170543 | 5 | 192 | 3.2 | 12.9 | 0.00 | 0.36 | 0.15 | 74 | 1017.0 |
| 20260507170052 | 5 | 194 | 6.4 | 12.9 | 0.00 | 0.36 | 0.15 | 74 | 1017.0 |
| 20260507165546 | 5 | 189 | 3.2 | 14.5 | 0.00 | 0.48 | 0.15 | 75 | 1017.0 |
| 20260507165043 | 5 | 301 | 4.8 | 16.1 | 0.00 | 0.48 | 0.15 | 75 | 1016.9 |
| 20260507164553 | 5 | 257 | 8.0 | 16.1 | 0.00 | 0.48 | 0.15 | 75 | 1017.0 |
| 20260507164043 | 5 | 242 | 4.8 | 17.7 | 0.00 | 0.48 | 0.15 | 75 | 1016.9 |
| 20260507163543 | 5 | 253 | 8.0 | 17.7 | 0.00 | 0.48 | 0.15 | 75 | 1016.9 |
| 20260507163051 | 5 | 316 | 9.7 | 17.7 | 0.00 | 0.48 | 0.15 | 75 | 1017.0 |
| 20260507162543 | 5 | 238 | 1.6 | 14.5 | 0.00 | 0.48 | 0.15 | 77 | 1016.8 |
| 20260507162045 | 5 | 257 | 6.4 | 14.5 | 0.00 | 0.48 | 0.15 | 77 | 1016.9 |
| 20260507161552 | 5 | 217 | 8.0 | 14.5 | 0.00 | 0.48 | 0.15 | 77 | 1016.7 |
| 20260507161042 | 5 | 252 | 8.0 | 12.9 | 0.00 | 0.48 | 0.15 | 78 | 1016.8 |
| 20260507160544 | 4 | 196 | 4.8 | 12.9 | 0.00 | 0.48 | 0.15 | 78 | 1016.7 |
| 20260507160110 | 4 | 240 | 4.8 | 14.5 | 0.00 | 0.48 | 0.15 | 78 | 1016.8 |
| 20260507155542 | 4 | 281 | 6.4 | 14.5 | 0.00 | 0.61 | 0.15 | 79 | 1016.7 |
| 20260507155044 | 4 | 253 | 6.4 | 14.5 | 0.00 | 0.61 | 0.15 | 78 | 1016.8 |
| 20260507154552 | 4 | 268 | 6.4 | 14.5 | 0.00 | 0.61 | 0.15 | 78 | 1016.7 |
| 20260507154044 | 4 | 271 | 3.2 | 14.5 | 0.00 | 0.61 | 0.15 | 77 | 1016.7 |
| 20260507153546 | 4 | 261 | 4.8 | 14.5 | 0.00 | 0.61 | 0.15 | 77 | 1016.8 |
| 20260507153047 | 4 | 257 | 8.0 | 16.1 | 0.00 | 0.61 | 0.15 | 77 | 1016.7 |
| 20260507152553 | 4 | 273 | 6.4 | 16.1 | 0.00 | 0.61 | 0.15 | 77 | 1016.8 |
| 20260507152046 | 4 | 266 | 8.0 | 16.1 | 0.00 | 0.61 | 0.15 | 76 | 1016.8 |
| 20260507151557 | 5 | 216 | 9.7 | 19.3 | 0.00 | 0.61 | 0.15 | 76 | 1016.9 |
| 20260507151043 | 5 | 251 | 11.3 | 19.3 | 0.00 | 0.61 | 0.15 | 75 | 1016.9 |
| 20260507150557 | 5 | 315 | 8.0 | 19.3 | 0.00 | 0.61 | 0.15 | 76 | 1016.9 |
| 20260507150053 | 5 | 262 | 6.4 | 25.7 | 0.00 | 0.61 | 0.15 | 76 | 1016.7 |
| 20260507145547 | 5 | 243 | 12.9 | 25.7 | 0.00 | 0.61 | 0.15 | 75 | 1016.7 |
| 20260507145044 | 5 | 240 | 8.0 | 17.7 | 0.00 | 0.61 | 0.15 | 74 | 1016.6 |
| 20260507144548 | 5 | 306 | 6.4 | 16.1 | 0.00 | 0.61 | 0.15 | 73 | 1016.4 |
| 20260507144043 | 5 | 261 | 6.4 | 14.5 | 0.00 | 0.61 | 0.15 | 72 | 1016.4 |
| 20260507143543 | 5 | 233 | 6.4 | 14.5 | 0.00 | 0.61 | 0.15 | 71 | 1016.3 |
| 20260507143058 | 5 | 267 | 6.4 | 19.3 | 0.00 | 0.61 | 0.15 | 72 | 1016.4 |
| 20260507142546 | 5 | 240 | 8.0 | 19.3 | 0.00 | 0.61 | 0.15 | 71 | 1016.4 |
| 20260507142043 | 5 | 223 | 8.0 | 17.7 | 0.00 | 0.61 | 0.15 | 71 | 1016.4 |
| 20260507141553 | 6 | 223 | 9.7 | 17.7 | 0.00 | 0.61 | 0.15 | 72 | 1016.4 |
| 20260507141043 | 6 | 235 | 8.0 | 14.5 | 0.00 | 0.61 | 0.15 | 74 | 1016.4 |
| 20260507140543 | 6 | 258 | 4.8 | 16.1 | 0.00 | 0.61 | 0.15 | 75 | 1016.3 |
| 20260507140110 | 6 | 255 | 4.8 | 19.3 | 0.00 | 0.61 | 0.15 | 74 | 1016.2 |
| 20260507135543 | 6 | 244 | 8.0 | 20.9 | 0.00 | 0.61 | 0.15 | 74 | 1016.1 |
| 20260507135043 | 6 | 234 | 11.3 | 20.9 | 0.00 | 0.61 | 0.15 | 74 | 1016.0 |
| 20260507134555 | 6 | 265 | 11.3 | 20.9 | 0.00 | 0.61 | 0.15 | 73 | 1016.0 |
| 20260507134043 | 6 | 252 | 12.9 | 20.9 | 0.00 | 0.61 | 0.15 | 73 | 1016.0 |
| 20260507133543 | 6 | 245 | 6.4 | 12.9 | 0.00 | 0.61 | 0.15 | 73 | 1015.9 |
| 20260507133056 | 6 | 243 | 6.4 | 17.7 | 0.00 | 0.61 | 0.15 | 72 | 1015.9 |